datetime,area
1938-02-20,21.97
1938-02-21,94.49
1938-02-22,97.78
1938-02-23,99.98
1938-02-24,102.18
1938-02-25,104.38
1938-02-26,9.09
1938-02-27,106.57
1938-02-28,108.77
1938-03-01,108.77
1938-03-02,9.09
1938-03-03,0.0
1938-03-04,18.18
1938-03-05,107.67
1938-03-06,108.77
1938-03-07,0.0
1938-03-08,36.35
1938-03-09,72.7
1938-03-10,54.53
1938-03-11,54.53
1938-03-12,72.7
1938-03-13,63.62
1938-03-14,63.62
1938-03-15,81.79
1938-03-16,103.6
1938-03-17,90.88
1938-03-18,90.88
1938-03-19,109.06
1938-03-20,127.23
1938-03-21,308.99
1938-03-22,636.16
1938-03-23,581.63
1938-03-24,581.63
1938-03-25,563.46
1938-03-26,545.28
1938-03-27,563.46
1938-03-28,608.9
1938-03-29,636.16
1938-03-30,654.34
1938-03-31,672.51
1938-04-01,690.69
1938-04-02,727.04
1938-04-03,763.39
1938-04-04,781.57
1938-04-05,836.1
1938-04-06,890.62
1938-04-07,921.71
1938-04-08,934.61
1938-04-09,973.33
1938-04-10,992.69
1938-04-11,1018.5
1938-04-12,1031.41
1938-04-13,1076.58
1938-04-14,1134.66
1938-04-15,1218.54
1938-04-16,1225.0
1938-04-17,1199.19
1938-04-18,1186.28
1938-04-19,1192.73
1938-04-20,1205.64
1938-04-21,1212.09
1938-04-22,1192.73
1938-04-23,1166.92
1938-04-24,1173.37
1938-04-25,1186.28
1938-04-26,1199.19
1938-04-27,1192.73
1938-04-28,1192.73
1938-04-29,1179.83
1938-04-30,1199.19
1938-05-01,1186.28
1938-05-02,1173.37
1938-05-03,1154.01
1938-05-04,1141.11
1938-05-05,1154.01
1938-05-06,1160.47
1938-05-07,1154.01
1938-05-08,1147.56
1938-05-09,1147.56
1938-05-10,1154.01
1938-05-11,1166.92
1938-05-12,1179.83
1938-05-13,1186.28
1938-05-14,1179.83
1938-05-15,1173.37
1938-05-16,1173.37
1938-05-17,1173.37
1938-05-18,1166.92
1938-05-19,1166.92
1938-05-20,1173.37
1938-05-21,1173.37
1938-05-22,1186.28
1938-05-23,1192.73
1938-05-24,1192.73
1938-05-25,1199.19
1938-05-26,1199.19
1938-05-27,1173.37
1938-05-28,1147.56
1938-05-29,1154.01
1938-05-30,1141.11
1938-05-31,1083.03
1938-06-01,1063.67
1938-06-02,1089.48
1938-06-03,1083.03
1938-06-04,1089.48
1938-06-05,1115.3
1938-06-06,1141.11
1938-06-07,1166.92
1938-06-08,1166.92
1938-06-09,1179.83
1938-06-10,1192.73
1938-06-11,1173.37
1938-06-12,1166.92
1938-06-13,1166.92
1938-06-14,1166.92
1938-06-15,1186.28
1938-06-16,1192.73
1938-06-17,1205.64
1938-06-18,1212.09
1938-06-19,1205.64
1938-06-20,1199.19
1938-06-21,1137.24
1938-06-22,1098.52
1938-06-23,1050.77
1938-06-24,1150.14
1938-06-25,1179.83
1938-06-26,1205.64
1938-06-27,1237.9
1938-06-28,1231.45
1938-06-29,1321.79
1938-06-30,1414.72
1938-07-01,1476.66
1938-07-02,1463.76
1938-07-03,1427.62
1938-07-04,1366.96
1938-07-05,1315.34
1938-07-06,1276.62
1938-07-07,1244.36
1938-07-08,1205.64
1938-07-09,1188.86
1938-07-10,1205.64
1938-07-11,1231.45
1938-07-12,1244.36
1938-07-13,1227.58
1938-07-14,1205.64
1938-07-15,1221.13
1938-07-16,1225.0
1938-07-17,1225.0
1938-07-18,1234.03
1938-07-19,1246.94
1938-07-20,1276.62
1938-07-21,1305.01
1938-07-22,1308.89
1938-07-23,1305.01
1938-07-24,1292.11
1938-07-25,1279.2
1938-07-26,1263.71
1938-07-27,1237.9
1938-07-28,1218.54
1938-07-29,1218.54
1938-07-30,1221.13
1938-07-31,1218.54
1938-08-01,1218.54
1938-08-02,1205.64
1938-08-03,1205.64
1938-08-04,1212.09
1938-08-05,1214.67
1938-08-06,1234.03
1938-08-07,1240.48
1938-08-08,1234.03
1938-08-09,1246.94
1938-08-10,1259.84
1938-08-11,1289.53
1938-08-12,1285.66
1938-08-13,1266.3
1938-08-14,1246.94
1938-08-15,1231.45
1938-08-16,1212.09
1938-08-17,1186.28
1938-08-18,1141.11
1938-08-19,1092.07
1938-08-20,1057.22
1938-08-21,1037.86
1938-08-22,1037.86
1938-08-23,1037.86
1938-08-24,1037.86
1938-08-25,1021.08
1938-08-26,995.27
1938-08-27,986.24
1938-08-28,986.24
1938-08-29,986.24
1938-08-30,995.27
1938-08-31,1012.05
1938-09-01,995.27
1938-09-02,1115.3
1938-09-03,1033.99
1938-09-04,908.8
1938-09-05,763.39
1938-09-06,608.9
1938-09-07,581.63
1938-09-08,536.19
1938-09-09,472.58
1938-09-10,363.52
1938-09-11,245.38
1938-09-12,327.17
1938-09-13,348.98
1938-09-14,276.28
1938-09-15,158.13
1938-09-16,30.9
1938-09-17,97.78
1938-09-18,76.91
1938-09-19,52.08
1938-09-20,43.29
1938-09-21,46.15
1938-09-22,71.42
1938-09-23,81.3
1938-09-24,58.23
1938-09-25,31.86
1938-09-26,14.72
1938-09-27,9.23
1938-09-28,20.88
1938-09-29,29.66
1938-09-30,35.6
1938-10-01,39.55
1938-10-02,42.19
1938-10-03,35.16
1938-10-04,20.88
1938-10-05,
1938-10-06,
1938-10-07,
1938-10-08,
1938-10-09,
1938-10-10,
1938-10-11,
1938-10-12,
1938-10-13,
1938-10-14,
1938-10-15,7.03
1938-10-16,94.05
1938-10-17,172.67
1938-10-18,427.14
1938-10-19,699.78
1938-10-20,845.18
1938-10-21,830.64
1938-10-22,917.83
1938-10-23,934.61
1938-10-24,934.61
1938-10-25,934.61
1938-10-26,934.61
1938-10-27,928.16
1938-10-28,928.16
1938-10-29,928.16
1938-10-30,928.16
1938-10-31,921.71
1938-11-01,908.8
1938-11-02,903.35
1938-11-03,885.17
1938-11-04,886.99
1938-11-05,877.9
1938-11-06,872.45
1938-11-07,868.81
1938-11-08,863.36
1938-11-09,859.72
1938-11-10,854.27
1938-11-11,841.55
1938-11-12,836.1
1938-11-13,832.46
1938-11-14,596.17
1938-11-15,376.24
1938-11-16,167.22
1938-11-17,145.41
1938-11-18,105.69
1938-11-19,185.4
1938-11-20,805.2
1938-11-21,908.8
1938-11-22,908.8
1938-11-23,915.25
1938-11-24,1031.41
1938-11-25,1240.48
1938-11-26,1244.36
1938-11-27,1366.96
1938-11-28,1609.77
1938-11-29,1693.69
1938-11-30,1942.05
1938-12-01,2194.16
1938-12-02,2430.3
1938-12-03,2585.48
1938-12-04,2918.17
1938-12-05,3152.46
1938-12-06,3417.48
1938-12-07,3678.37
1938-12-08,3948.94
1938-12-09,4200.69
1938-12-10,4433.62
1938-12-11,4666.55
1938-12-12,4919.01
1938-12-13,5015.3
1938-12-14,4948.12
1938-12-15,4856.3
1938-12-16,4760.66
1938-12-17,4685.37
1938-12-18,4612.43
1938-12-19,4588.91
1938-12-20,4593.61
1938-12-21,4586.55
1938-12-22,4588.91
1938-12-23,4593.61
1938-12-24,4586.55
1938-12-25,4572.44
1938-12-26,4565.38
1938-12-27,4563.03
1938-12-28,4558.32
1938-12-29,4558.32
1938-12-30,4555.97
1938-12-31,4546.56
1939-01-01,4541.85
1939-01-02,4537.14
1939-01-03,4534.79
1939-01-04,4532.44
1939-01-05,4532.44
1939-01-06,4530.09
1939-01-07,4530.09
1939-01-08,4560.67
1939-01-09,4753.6
1939-01-10,4954.84
1939-01-11,5189.97
1939-01-12,5387.04
1939-01-13,5593.07
1939-01-14,5763.26
1939-01-15,5935.15
1939-01-16,5954.82
1939-01-17,5950.45
1939-01-18,5948.26
1939-01-19,5948.26
1939-01-20,5935.15
1939-01-21,5917.67
1939-01-22,5915.49
1939-01-23,5926.41
1939-01-24,5917.67
1939-01-25,5915.49
1939-01-26,5908.82
1939-01-27,5897.62
1939-01-28,5897.62
1939-01-29,5899.86
1939-01-30,5895.38
1939-01-31,5888.67
1939-02-01,5877.47
1939-02-02,5877.47
1939-02-03,5868.51
1939-02-04,5868.51
1939-02-05,5866.27
1939-02-06,5850.6
1939-02-07,5774.46
1939-02-08,5684.88
1939-02-09,5626.66
1939-02-10,5586.35
1939-02-11,5546.04
1939-02-12,5485.57
1939-02-13,5416.15
1939-02-14,5351.21
1939-02-15,5288.51
1939-02-16,5241.48
1939-02-17,5192.21
1939-02-18,5160.86
1939-02-19,5145.19
1939-02-20,5140.71
1939-02-21,5133.99
1939-02-22,5136.23
1939-02-23,5138.47
1939-02-24,5138.47
1939-02-25,5133.99
1939-02-26,5136.23
1939-02-27,5147.43
1939-02-28,5116.07
1939-03-01,5051.13
1939-03-02,4979.47
1939-03-03,4912.29
1939-03-04,4831.67
1939-03-05,4753.6
1939-03-06,4661.84
1939-03-07,4574.79
1939-03-08,4485.38
1939-03-09,4403.04
1939-03-10,4332.45
1939-03-11,4250.1
1939-03-12,4153.64
1939-03-13,4050.12
1939-03-14,3953.65
1939-03-15,3843.07
1939-03-16,3716.02
1939-03-17,3580.71
1939-03-18,3442.44
1939-03-19,3284.97
1939-03-20,3152.46
1939-03-21,3006.51
1939-03-22,2847.12
1939-03-23,2695.41
1939-03-24,2585.48
1939-03-25,2470.78
1939-03-26,2356.08
1939-03-27,2227.89
1939-03-28,2092.95
1939-03-29,1952.33
1939-03-30,1846.13
1939-03-31,1754.5
1939-04-01,1633.75
1939-04-02,1562.66
1939-04-03,1561.81
1939-04-04,1565.23
1939-04-05,1568.66
1939-04-06,1575.51
1939-04-07,1588.36
1939-04-08,1615.76
1939-04-09,1651.73
1939-04-10,1682.56
1939-04-11,1646.59
1939-04-12,1659.44
1939-04-13,1702.26
1939-04-14,1738.23
1939-04-15,1779.33
1939-04-16,1823.87
1939-04-17,1861.55
1939-04-18,1896.66
1939-04-19,1934.34
1939-04-20,1974.59
1939-04-21,2033.58
1939-04-22,2105.1
1939-04-23,2159.07
1939-04-24,2222.49
1939-04-25,2287.26
1939-04-26,2350.69
1939-04-27,2362.83
1939-04-28,2387.12
1939-04-29,2461.34
1939-04-30,2519.36
1939-05-01,2581.43
1939-05-02,2578.73
1939-05-03,2729.98
1939-05-04,2791.43
1939-05-05,2820.23
1939-05-06,2833.68
1939-05-07,2829.84
1939-05-08,2822.15
1939-05-09,2829.84
1939-05-10,2820.23
1939-05-11,2829.84
1939-05-12,2837.52
1939-05-13,2849.04
1939-05-14,2787.59
1939-05-15,2768.38
1939-05-16,2743.42
1939-05-17,2662.76
1939-05-18,2620.57
1939-05-19,2619.22
1939-05-20,2611.12
1939-05-21,2593.58
1939-05-22,2576.04
1939-05-23,2542.3
1939-05-24,2470.78
1939-05-25,2395.22
1939-05-26,2352.04
1939-05-27,2299.41
1939-05-28,2209.0
1939-05-29,2059.22
1939-05-30,1934.34
1939-05-31,1840.99
1939-06-01,1749.36
1939-06-02,1674.0
1939-06-03,1624.32
1939-06-04,1585.79
1939-06-05,1561.81
1939-06-06,1523.13
1939-06-07,1508.93
1939-06-08,1515.38
1939-06-09,1521.84
1939-06-10,1521.84
1939-06-11,1512.8
1939-06-12,1499.89
1939-06-13,1485.7
1939-06-14,1470.21
1939-06-15,1446.98
1939-06-16,1434.07
1939-06-17,1432.78
1939-06-18,1421.17
1939-06-19,1414.72
1939-06-20,1404.39
1939-06-21,1399.23
1939-06-22,1401.81
1939-06-23,1405.68
1939-06-24,1425.04
1939-06-25,1431.49
1939-06-26,1428.91
1939-06-27,1426.33
1939-06-28,1426.33
1939-06-29,1432.78
1939-06-30,1439.24
1939-07-01,1444.4
1939-07-02,1443.11
1939-07-03,1462.47
1939-07-04,1456.01
1939-07-05,1453.43
1939-07-06,1452.14
1939-07-07,1450.85
1939-07-08,1441.82
1939-07-09,1422.46
1939-07-10,1410.84
1939-07-11,1409.55
1939-07-12,1401.81
1939-07-13,1383.74
1939-07-14,1365.67
1939-07-15,1347.6
1939-07-16,1347.6
1939-07-17,1370.83
1939-07-18,1369.54
1939-07-19,1374.71
1939-07-20,1390.19
1939-07-21,1394.07
1939-07-22,1399.23
1939-07-23,1399.23
1939-07-24,1392.78
1939-07-25,1392.78
1939-07-26,1400.52
1939-07-27,1440.53
1939-07-28,1481.83
1939-07-29,1520.54
1939-07-30,1560.09
1939-07-31,1579.79
1939-08-01,1603.77
1939-08-02,1641.45
1939-08-03,1626.04
1939-08-04,1590.07
1939-08-05,1625.18
1939-08-06,1653.44
1939-08-07,1669.71
1939-08-08,1598.63
1939-08-09,1638.03
1939-08-10,1668.0
1939-08-11,1696.26
1939-08-12,1726.24
1939-08-13,1740.8
1939-08-14,1754.5
1939-08-15,1772.48
1939-08-16,1798.17
1939-08-17,1817.87
1939-08-18,1855.55
1939-08-19,1869.26
1939-08-20,1875.25
1939-08-21,1886.38
1939-08-22,1899.23
1939-08-23,1907.79
1939-08-24,1920.64
1939-08-25,1932.63
1939-08-26,1944.62
1939-08-27,1948.04
1939-08-28,1957.46
1939-08-29,1954.04
1939-08-30,1942.91
1939-08-31,1929.2
1939-09-01,1908.65
1939-09-02,1888.95
1939-09-03,1886.38
1939-09-04,1880.39
1939-09-05,1881.24
1939-09-06,1888.95
1939-09-07,1899.23
1939-09-08,1908.65
1939-09-09,1924.92
1939-09-10,1942.05
1939-09-11,1963.46
1939-09-12,1985.0
1939-09-13,2028.18
1939-09-14,2128.04
1939-09-15,2327.75
1939-09-16,2493.72
1939-09-17,2623.27
1939-09-18,2779.91
1939-09-19,2952.74
1939-09-20,3087.17
1939-09-21,3200.47
1939-09-22,3329.14
1939-09-23,3436.68
1939-09-24,3538.46
1939-09-25,3636.02
1939-09-26,3751.31
1939-09-27,3861.89
1939-09-28,3951.3
1939-09-29,4028.94
1939-09-30,4151.29
1939-10-01,4264.22
1939-10-02,4363.04
1939-10-03,4464.21
1939-10-04,4581.85
1939-10-05,4723.02
1939-10-06,4894.37
1939-10-07,5062.33
1939-10-08,5232.52
1939-10-09,5398.24
1939-10-10,5550.52
1939-10-11,5696.08
1939-10-12,5734.15
1939-10-13,5722.95
1939-10-14,5709.51
1939-10-15,5698.32
1939-10-16,5687.12
1939-10-17,5633.38
1939-10-18,5561.71
1939-10-19,5494.53
1939-10-20,5434.07
1939-10-21,5378.08
1939-10-22,5344.49
1939-10-23,5324.34
1939-10-24,5317.62
1939-10-25,5306.42
1939-10-26,5299.7
1939-10-27,5295.23
1939-10-28,5288.51
1939-10-29,5284.03
1939-10-30,5279.55
1939-10-31,5270.59
1939-11-01,5284.03
1939-11-02,5263.87
1939-11-03,5254.92
1939-11-04,5248.2
1939-11-05,5243.72
1939-11-06,5241.48
1939-11-07,5241.48
1939-11-08,5239.24
1939-11-09,5234.76
1939-11-10,5232.52
1939-11-11,5167.58
1939-11-12,5080.24
1939-11-13,4983.95
1939-11-14,4903.33
1939-11-15,4845.11
1939-11-16,4822.71
1939-11-17,4815.99
1939-11-18,4815.99
1939-11-19,4815.99
1939-11-20,4813.75
1939-11-21,4813.75
1939-11-22,4813.75
1939-11-23,4813.75
1939-11-24,4813.75
1939-11-25,4815.99
1939-11-26,4815.99
1939-11-27,4815.99
1939-11-28,4815.99
1939-11-29,4815.99
1939-11-30,4815.99
1939-12-01,4815.99
1939-12-02,4815.99
1939-12-03,4815.99
1939-12-04,4815.99
1939-12-05,4815.99
1939-12-06,4815.99
1939-12-07,4815.99
1939-12-08,4813.75
1939-12-09,4813.75
1939-12-10,4813.75
1939-12-11,4813.75
1939-12-12,4813.75
1939-12-13,4811.52
1939-12-14,4798.08
1939-12-15,4748.9
1939-12-16,4647.73
1939-12-17,4574.79
1939-12-18,4511.26
1939-12-19,4478.32
1939-12-20,4464.21
1939-12-21,4461.86
1939-12-22,4461.86
1939-12-23,4461.86
1939-12-24,4466.56
1939-12-25,4473.62
1939-12-26,4480.68
1939-12-27,4485.38
1939-12-28,4487.74
1939-12-29,4487.74
1939-12-30,4487.74
1939-12-31,4487.74
1940-01-01,4490.09
1940-01-02,4492.44
1940-01-03,4494.79
1940-01-04,4494.79
1940-01-05,4497.15
1940-01-06,4499.5
1940-01-07,4499.5
1940-01-08,4499.5
1940-01-09,4504.21
1940-01-10,4511.26
1940-01-11,4511.26
1940-01-12,4511.26
1940-01-13,4511.26
1940-01-14,4511.26
1940-01-15,4513.62
1940-01-16,4513.62
1940-01-17,4513.62
1940-01-18,4513.62
1940-01-19,4515.97
1940-01-20,4515.97
1940-01-21,4520.68
1940-01-22,4520.68
1940-01-23,4523.03
1940-01-24,4523.03
1940-01-25,4525.38
1940-01-26,4527.73
1940-01-27,4530.09
1940-01-28,4532.44
1940-01-29,4532.44
1940-01-30,4532.44
1940-01-31,4532.44
1940-02-01,4530.09
1940-02-02,4541.85
1940-02-03,4553.61
1940-02-04,4553.61
1940-02-05,4563.03
1940-02-06,4563.03
1940-02-07,4563.03
1940-02-08,4565.38
1940-02-09,4565.38
1940-02-10,4563.03
1940-02-11,4525.38
1940-02-12,4501.85
1940-02-13,4478.32
1940-02-14,4433.62
1940-02-15,4341.86
1940-02-16,4268.93
1940-02-17,4177.17
1940-02-18,4097.17
1940-02-19,4033.65
1940-02-20,4017.18
1940-02-21,4017.18
1940-02-22,4017.18
1940-02-23,4017.18
1940-02-24,4019.53
1940-02-25,4024.23
1940-02-26,4024.23
1940-02-27,4024.23
1940-02-28,4024.23
1940-02-29,4014.82
1940-03-01,3951.3
1940-03-02,3826.6
1940-03-03,3697.2
1940-03-04,3598.0
1940-03-05,3509.66
1940-03-06,3425.16
1940-03-07,3367.55
1940-03-08,3294.57
1940-03-09,3179.35
1940-03-10,3069.89
1940-03-11,2993.07
1940-03-12,2920.09
1940-03-13,2829.84
1940-03-14,2737.66
1940-03-15,2630.01
1940-03-16,2526.11
1940-03-17,2411.41
1940-03-18,2276.47
1940-03-19,2156.37
1940-03-20,2020.08
1940-03-21,1914.64
1940-03-22,1822.15
1940-03-23,1703.97
1940-03-24,1577.22
1940-03-25,1382.45
1940-03-26,1178.54
1940-03-27,1070.13
1940-03-28,1037.86
1940-03-29,1052.06
1940-03-30,1028.83
1940-03-31,1004.3
1940-04-01,988.82
1940-04-02,1006.89
1940-04-03,996.56
1940-04-04,992.69
1940-04-05,1004.3
1940-04-06,1008.18
1940-04-07,1003.01
1940-04-08,1000.43
1940-04-09,996.56
1940-04-10,1006.89
1940-04-11,1021.08
1940-04-12,1031.41
1940-04-13,1040.44
1940-04-14,1053.35
1940-04-15,1067.54
1940-04-16,1086.9
1940-04-17,1125.62
1940-04-18,1163.05
1940-04-19,1168.21
1940-04-20,1195.31
1940-04-21,1236.61
1940-04-22,1285.66
1940-04-23,1306.3
1940-04-24,1354.06
1940-04-25,1372.13
1940-04-26,1368.25
1940-04-27,1369.54
1940-04-28,1370.83
1940-04-29,1373.42
1940-04-30,1378.58
1940-05-01,1373.42
1940-05-02,1363.09
1940-05-03,1341.15
1940-05-04,1311.47
1940-05-05,1270.17
1940-05-06,1234.03
1940-05-07,1246.94
1940-05-08,1286.95
1940-05-09,1332.12
1940-05-10,1391.48
1940-05-11,1444.4
1940-05-12,1496.02
1940-05-13,1539.9
1940-05-14,1572.94
1940-05-15,1583.22
1940-05-16,1584.07
1940-05-17,1586.64
1940-05-18,1590.07
1940-05-19,1596.06
1940-05-20,1599.49
1940-05-21,1612.34
1940-05-22,1632.03
1940-05-23,1668.0
1940-05-24,1690.27
1940-05-25,1680.85
1940-05-26,1663.72
1940-05-27,1630.32
1940-05-28,1591.78
1940-05-29,1517.96
1940-05-30,1457.3
1940-05-31,1439.24
1940-06-01,1412.13
1940-06-02,1400.52
1940-06-03,1388.9
1940-06-04,1383.74
1940-06-05,1379.87
1940-06-06,1387.61
1940-06-07,1383.74
1940-06-08,1379.87
1940-06-09,1368.25
1940-06-10,1355.35
1940-06-11,1337.28
1940-06-12,1334.7
1940-06-13,1359.22
1940-06-14,1392.78
1940-06-15,1417.3
1940-06-16,1431.49
1940-06-17,1448.27
1940-06-18,1465.05
1940-06-19,1462.47
1940-06-20,1462.47
1940-06-21,1443.11
1940-06-22,1427.62
1940-06-23,1465.05
1940-06-24,1517.96
1940-06-25,1587.5
1940-06-26,1626.04
1940-06-27,1656.87
1940-06-28,1687.7
1940-06-29,1706.54
1940-06-30,1708.25
1940-07-01,1712.53
1940-07-02,1716.82
1940-07-03,1693.69
1940-07-04,1637.17
1940-07-05,1565.23
1940-07-06,1388.9
1940-07-07,1308.89
1940-07-08,1308.89
1940-07-09,1302.43
1940-07-10,1297.27
1940-07-11,1263.71
1940-07-12,1257.26
1940-07-13,1303.72
1940-07-14,1347.6
1940-07-15,1363.09
1940-07-16,1378.58
1940-07-17,1388.9
1940-07-18,1365.67
1940-07-19,1377.29
1940-07-20,1403.1
1940-07-21,1425.04
1940-07-22,1387.61
1940-07-23,1376.0
1940-07-24,1401.81
1940-07-25,1414.72
1940-07-26,1368.25
1940-07-27,1343.73
1940-07-28,1302.43
1940-07-29,1320.5
1940-07-30,1280.49
1940-07-31,1311.47
1940-08-01,1319.21
1940-08-02,1332.12
1940-08-03,1324.37
1940-08-04,1404.39
1940-08-05,1458.6
1940-08-06,1463.76
1940-08-07,1374.71
1940-08-08,1357.93
1940-08-09,1345.02
1940-08-10,1325.66
1940-08-11,1311.47
1940-08-12,1301.14
1940-08-13,1332.12
1940-08-14,1370.83
1940-08-15,1405.68
1940-08-16,1427.62
1940-08-17,1444.4
1940-08-18,1432.78
1940-08-19,1421.17
1940-08-20,1412.13
1940-08-21,1413.42
1940-08-22,1417.3
1940-08-23,1418.59
1940-08-24,1409.55
1940-08-25,1408.26
1940-08-26,1390.19
1940-08-27,1376.0
1940-08-28,1365.67
1940-08-29,1364.38
1940-08-30,1346.31
1940-08-31,1332.12
1940-09-01,1317.92
1940-09-02,1308.89
1940-09-03,1310.18
1940-09-04,1319.21
1940-09-05,1324.37
1940-09-06,1348.89
1940-09-07,1359.22
1940-09-08,1357.93
1940-09-09,1363.09
1940-09-10,1333.41
1940-09-11,1352.77
1940-09-12,1338.57
1940-09-13,1312.76
1940-09-14,1292.11
1940-09-15,1272.75
1940-09-16,1274.04
1940-09-17,1221.13
1940-09-18,1200.48
1940-09-19,1209.51
1940-09-20,1215.96
1940-09-21,1232.74
1940-09-22,1267.59
1940-09-23,1290.82
1940-09-24,1270.17
1940-09-25,1236.61
1940-09-26,1182.41
1940-09-27,1101.1
1940-09-28,999.14
1940-09-29,879.72
1940-09-30,708.86
1940-10-01,567.09
1940-10-02,572.54
1940-10-03,592.54
1940-10-04,621.62
1940-10-05,643.43
1940-10-06,679.78
1940-10-07,710.68
1940-10-08,737.95
1940-10-09,765.21
1940-10-10,799.74
1940-10-11,821.56
1940-10-12,850.64
1940-10-13,881.54
1940-10-14,908.8
1940-10-15,924.29
1940-10-16,942.36
1940-10-17,960.42
1940-10-18,978.49
1940-10-19,995.27
1940-10-20,1013.34
1940-10-21,1031.41
1940-10-22,1052.06
1940-10-23,1067.54
1940-10-24,1081.74
1940-10-25,1086.9
1940-10-26,1037.86
1940-10-27,999.14
1940-10-28,1012.05
1940-10-29,1027.54
1940-10-30,1046.89
1940-10-31,1068.83
1940-11-01,1081.74
1940-11-02,1097.23
1940-11-03,1110.13
1940-11-04,1128.2
1940-11-05,1144.98
1940-11-06,1159.18
1940-11-07,1177.24
1940-11-08,1196.6
1940-11-09,1209.51
1940-11-10,1225.0
1940-11-11,1236.61
1940-11-12,1249.52
1940-11-13,1263.71
1940-11-14,1276.62
1940-11-15,1290.82
1940-11-16,1303.72
1940-11-17,1319.21
1940-11-18,1332.12
1940-11-19,1343.73
1940-11-20,1361.8
1940-11-21,1374.71
1940-11-22,1374.71
1940-11-23,1314.05
1940-11-24,1244.36
1940-11-25,1218.54
1940-11-26,1235.32
1940-11-27,1253.39
1940-11-28,1275.33
1940-11-29,1293.4
1940-11-30,1312.76
1940-12-01,1330.83
1940-12-02,1351.48
1940-12-03,1366.96
1940-12-04,1383.74
1940-12-05,1404.39
1940-12-06,1425.04
1940-12-07,1443.11
1940-12-08,1458.6
1940-12-09,1474.08
1940-12-10,1490.86
1940-12-11,1505.06
1940-12-12,1516.67
1940-12-13,1530.87
1940-12-14,1550.23
1940-12-15,1592.64
1940-12-16,1638.03
1940-12-17,1686.84
1940-12-18,1737.37
1940-12-19,1778.48
1940-12-20,1820.44
1940-12-21,1869.26
1940-12-22,1912.93
1940-12-23,1948.04
1940-12-24,1986.35
1940-12-25,2057.87
1940-12-26,2113.19
1940-12-27,2177.96
1940-12-28,2258.93
1940-12-29,2326.4
1940-12-30,2388.47
1940-12-31,2470.78
1941-01-01,2549.05
1941-01-02,2611.12
1941-01-03,2693.49
1941-01-04,2789.51
1941-01-05,2883.61
1941-01-06,2950.82
1941-01-07,3041.08
1941-01-08,3133.26
1941-01-09,3215.84
1941-01-10,3298.41
1941-01-11,3373.31
1941-01-12,3457.81
1941-01-13,3515.42
1941-01-14,3582.63
1941-01-15,3666.61
1941-01-16,3746.6
1941-01-17,3833.66
1941-01-18,3916.01
1941-01-19,3998.35
1941-01-20,4054.82
1941-01-21,4137.17
1941-01-22,4219.52
1941-01-23,4304.22
1941-01-24,4381.86
1941-01-25,4457.15
1941-01-26,4539.5
1941-01-27,4605.38
1941-01-28,4683.02
1941-01-29,4767.72
1941-01-30,4845.11
1941-01-31,4914.53
1941-02-01,4995.15
1941-02-02,5062.33
1941-02-03,5113.83
1941-02-04,5183.26
1941-02-05,5250.44
1941-02-06,5313.14
1941-02-07,5380.32
1941-02-08,5447.5
1941-02-09,5507.97
1941-02-10,5561.71
1941-02-11,5617.7
1941-02-12,5678.16
1941-02-13,5743.11
1941-02-14,5801.33
1941-02-15,5859.55
1941-02-16,5915.49
1941-02-17,5952.63
1941-02-18,6005.08
1941-02-19,6059.71
1941-02-20,6114.34
1941-02-21,6149.3
1941-02-22,6201.75
1941-02-23,6208.3
1941-02-24,6210.49
1941-02-25,6230.15
1941-02-26,6256.38
1941-02-27,6280.41
1941-02-28,6306.64
1941-03-01,6332.86
1941-03-02,6354.71
1941-03-03,6387.49
1941-03-04,6433.38
1941-03-05,6485.82
1941-03-06,6540.45
1941-03-07,6586.34
1941-03-08,6630.05
1941-03-09,6678.12
1941-03-10,6704.34
1941-03-11,6734.94
1941-03-12,6743.68
1941-03-13,6732.75
1941-03-14,6721.82
1941-03-15,6699.97
1941-03-16,6697.79
1941-03-17,6678.12
1941-03-18,6689.05
1941-03-19,6710.9
1941-03-20,6717.45
1941-03-21,6715.27
1941-03-22,6715.27
1941-03-23,6684.68
1941-03-24,6651.9
1941-03-25,6627.86
1941-03-26,6586.34
1941-03-27,6547.01
1941-03-28,6507.67
1941-03-29,6461.79
1941-03-30,6407.16
1941-03-31,6326.3
1941-04-01,6254.19
1941-04-02,6186.45
1941-04-03,6112.15
1941-04-04,6024.75
1941-04-05,5946.08
1941-04-06,5843.88
1941-04-07,5705.04
1941-04-08,5606.5
1941-04-09,5499.01
1941-04-10,5393.76
1941-04-11,5279.55
1941-04-12,5194.45
1941-04-13,5084.72
1941-04-14,4957.08
1941-04-15,4838.39
1941-04-16,4737.13
1941-04-17,4628.9
1941-04-18,4508.91
1941-04-19,4388.92
1941-04-20,4278.34
1941-04-21,4200.69
1941-04-22,4094.82
1941-04-23,4026.59
1941-04-24,3970.12
1941-04-25,3923.06
1941-04-26,3904.24
1941-04-27,3885.42
1941-04-28,3866.6
1941-04-29,3852.48
1941-04-30,3840.72
1941-05-01,3847.77
1941-05-02,3847.77
1941-05-03,3859.54
1941-05-04,3866.6
1941-05-05,3873.66
1941-05-06,3878.36
1941-05-07,3866.6
1941-05-08,3845.42
1941-05-09,3817.19
1941-05-10,3756.02
1941-05-11,3701.9
1941-05-12,3650.14
1941-05-13,3605.68
1941-05-14,3538.46
1941-05-15,3475.09
1941-05-16,3419.4
1941-05-17,3371.39
1941-05-18,3329.14
1941-05-19,3277.29
1941-05-20,3229.28
1941-05-21,3198.55
1941-05-22,3148.62
1941-05-23,3114.06
1941-05-24,3100.61
1941-05-25,3100.61
1941-05-26,3089.09
1941-05-27,3096.77
1941-05-28,3075.65
1941-05-29,3052.6
1941-05-30,3023.8
1941-05-31,2987.31
1941-06-01,2941.22
1941-06-02,2881.69
1941-06-03,2820.23
1941-06-04,2772.22
1941-06-05,2705.01
1941-06-06,2632.71
1941-06-07,2576.04
1941-06-08,2508.57
1941-06-09,2441.1
1941-06-10,2380.37
1941-06-11,2325.05
1941-06-12,2267.02
1941-06-13,2204.95
1941-06-14,2164.47
1941-06-15,2072.71
1941-06-16,1978.02
1941-06-17,1909.51
1941-06-18,1847.85
1941-06-19,1768.2
1941-06-20,1684.27
1941-06-21,1593.49
1941-06-22,1511.51
1941-06-23,1510.22
1941-06-24,1525.71
1941-06-25,1533.45
1941-06-26,1541.19
1941-06-27,1552.81
1941-06-28,1534.74
1941-06-29,1472.79
1941-06-30,1428.91
1941-07-01,1396.65
1941-07-02,1379.87
1941-07-03,1376.0
1941-07-04,1401.81
1941-07-05,1440.53
1941-07-06,1450.85
1941-07-07,1456.01
1941-07-08,1459.89
1941-07-09,1448.27
1941-07-10,1425.04
1941-07-11,1423.75
1941-07-12,1452.14
1941-07-13,1479.25
1941-07-14,1486.99
1941-07-15,1481.83
1941-07-16,1430.2
1941-07-17,1414.72
1941-07-18,1417.3
1941-07-19,1421.17
1941-07-20,1426.33
1941-07-21,1435.36
1941-07-22,1465.05
1941-07-23,1472.79
1941-07-24,1399.23
1941-07-25,1409.55
1941-07-26,1430.2
1941-07-27,1459.89
1941-07-28,1512.8
1941-07-29,1497.31
1941-07-30,1463.76
1941-07-31,1452.14
1941-08-01,1472.79
1941-08-02,1502.48
1941-08-03,1528.29
1941-08-04,1493.44
1941-08-05,1440.53
1941-08-06,1443.11
1941-08-07,1461.18
1941-08-08,1523.13
1941-08-09,1536.03
1941-08-10,1532.16
1941-08-11,1530.87
1941-08-12,1506.35
1941-08-13,1584.07
1941-08-14,1584.07
1941-08-15,1587.5
1941-08-16,1584.07
1941-08-17,1554.96
1941-08-18,1490.86
1941-08-19,1461.18
1941-08-20,1412.13
1941-08-21,1363.09
1941-08-22,1363.09
1941-08-23,1368.25
1941-08-24,1345.02
1941-08-25,1316.63